When you browse on this site, cookies collect data to enhance your experience and personalize the content and advertising you see.
Visit our Privacy Policy to learn more. By continuing to use the site, you agree to this use of cookies and data.
  • In Austria
  • List of Countries
  • For 7 days
  • Water Temperature
  • Satellite Maps
  • Weather Map
  • News
  • Weather Widgets
  • user-avatar
    Login

    Hourly Weather Perth

    Today, 24 March, Sunday

    Time Temperature Precipitation Wind Pressure Humidity
    00:00 +19°C° 0 mm 4 mps 761 mmHg 53%
    01:00 +18°C° 0 mm 4 mps 761 mmHg 55%
    02:00 +17°C° 0 mm 3 mps 761 mmHg 61%
    03:00 +17°C° 0 mm 3 mps 761 mmHg 63%
    04:00 +16°C° 0 mm 3 mps 761 mmHg 65%
    05:00 +15°C° 0 mm 4 mps 762 mmHg 66%
    06:00 +15°C° 0 mm 4 mps 762 mmHg 65%
    07:00 +17°C° 0 mm 4 mps 762 mmHg 64%
    08:00 +17°C° 0 mm 3 mps 763 mmHg 61%
    09:00 +19°C° 0 mm 3 mps 763 mmHg 54%
    10:00 +21°C° 0 mm 3 mps 762 mmHg 47%
    11:00 +24°C° 0 mm 3 mps 762 mmHg 40%
    12:00 +26°C° 0 mm 3 mps 762 mmHg 37%
    13:00 +27°C° 0 mm 3 mps 761 mmHg 33%
    14:00 +28°C° 0 mm 3 mps 760 mmHg 30%
    15:00 +28°C° 0 mm 4 mps 760 mmHg 31%
    16:00 +28°C° 0 mm 4 mps 760 mmHg 32%
    17:00 +28°C° 0 mm 4 mps 760 mmHg 33%
    18:00 +27°C° 0 mm 4 mps 760 mmHg 35%
    19:00 +25°C° 0 mm 4 mps 761 mmHg 37%
    20:00 +23°C° 0 mm 4 mps 761 mmHg 39%
    21:00 +22°C° 0 mm 5 mps 761 mmHg 42%
    22:00 +21°C° 0 mm 5 mps 762 mmHg 45%
    23:00 +20°C° 0 mm 6 mps 762 mmHg 49%

    Tomorrow, 25 March, Monday

    Time Temperature Precipitation Wind Pressure Humidity
    00:00 +19°C° 0 mm 6 mps 762 mmHg 52%
    01:00 +19°C° 0 mm 6 mps 763 mmHg 55%
    02:00 +17°C° 0 mm 6 mps 763 mmHg 58%
    03:00 +16°C° 0 mm 6 mps 763 mmHg 59%
    04:00 +16°C° 0 mm 6 mps 763 mmHg 61%
    05:00 +15°C° 0 mm 6 mps 763 mmHg 62%
    06:00 +15°C° 0 mm 7 mps 763 mmHg 61%
    07:00 +16°C° 0 mm 7 mps 764 mmHg 59%
    08:00 +16°C° 0 mm 7 mps 764 mmHg 58%
    09:00 +18°C° 0 mm 7 mps 764 mmHg 50%
    10:00 +21°C° 0 mm 6 mps 764 mmHg 43%
    11:00 +23°C° 0 mm 6 mps 763 mmHg 35%
    12:00 +26°C° 0 mm 6 mps 763 mmHg 32%
    13:00 +27°C° 0 mm 5 mps 762 mmHg 29%
    14:00 +29°C° 0 mm 5 mps 762 mmHg 25%
    15:00 +29°C° 0 mm 5 mps 762 mmHg 25%
    16:00 +29°C° 0 mm 4 mps 761 mmHg 25%
    17:00 +29°C° 0 mm 4 mps 761 mmHg 24%
    18:00 +27°C° 0 mm 4 mps 762 mmHg 27%
    19:00 +26°C° 0 mm 4 mps 762 mmHg 29%
    20:00 +23°C° 0 mm 4 mps 762 mmHg 31%
    21:00 +23°C° 0 mm 4 mps 762 mmHg 31%
    22:00 +23°C° 0 mm 5 mps 763 mmHg 31%
    23:00 +23°C° 0 mm 5 mps 763 mmHg 31%

    Day after tomorrow, 26 March, Tuesday

    Time Temperature Precipitation Wind Pressure Humidity
    00:00 +23°C° 0 mm 5 mps 763 mmHg 33%
    01:00 +23°C° 0 mm 5 mps 762 mmHg 34%
    02:00 +22°C° 0 mm 6 mps 762 mmHg 35%
    03:00 +22°C° 0 mm 5 mps 762 mmHg 37%
    04:00 +22°C° 0 mm 5 mps 762 mmHg 38%
    05:00 +21°C° 0 mm 5 mps 762 mmHg 40%
    06:00 +21°C° 0 mm 6 mps 762 mmHg 40%
    07:00 +22°C° 0 mm 6 mps 763 mmHg 41%
    08:00 +22°C° 0 mm 6 mps 763 mmHg 41%
    09:00 +24°C° 0 mm 6 mps 763 mmHg 37%
    10:00 +27°C° 0 mm 5 mps 763 mmHg 33%
    11:00 +29°C° 0 mm 5 mps 763 mmHg 29%
    12:00 +30°C° 0 mm 4 mps 762 mmHg 27%
    13:00 +33°C° 0 mm 3 mps 761 mmHg 25%
    14:00 +34°C° 0 mm 2 mps 761 mmHg 23%
    15:00 +34°C° 0 mm 2 mps 760 mmHg 23%
    16:00 +34°C° 0 mm 2 mps 760 mmHg 23%
    17:00 +34°C° 0 mm 2 mps 760 mmHg 22%
    18:00 +31°C° 0 mm 2 mps 760 mmHg 25%
    19:00 +29°C° 0 mm 2 mps 760 mmHg 28%
    20:00 +27°C° 0 mm 3 mps 761 mmHg 30%
    21:00 +27°C° 0 mm 2 mps 761 mmHg 29%
    22:00 +26°C° 0 mm 2 mps 761 mmHg 28%
    23:00 +26°C° 0 mm 2 mps 761 mmHg 27%

    27 March, Wednesday

    Time Temperature Precipitation Wind Pressure Humidity
    00:00 +26°C° 0 mm 2 mps 760 mmHg 27%
    01:00 +26°C° 0 mm 2 mps 760 mmHg 27%
    02:00 +26°C° 0 mm 2 mps 760 mmHg 27%
    03:00 +26°C° 0 mm 2 mps 760 mmHg 29%
    04:00 +25°C° 0 mm 2 mps 760 mmHg 31%
    05:00 +25°C° 0 mm 2 mps 760 mmHg 33%
    06:00 +26°C° 0 mm 1 mps 760 mmHg 34%
    07:00 +27°C° 0 mm 1 mps 760 mmHg 35%
    08:00 +28°C° 0 mm 1 mps 761 mmHg 35%
    09:00 +30°C° 0 mm 2 mps 761 mmHg 33%
    10:00 +32°C° 0 mm 2 mps 761 mmHg 30%
    11:00 +35°C° 0 mm 2 mps 761 mmHg 28%
    12:00 +35°C° 0 mm 3 mps 760 mmHg 28%
    13:00 +35°C° 0 mm 4 mps 760 mmHg 27%
    14:00 +35°C° 0 mm 4 mps 759 mmHg 27%
    15:00 +34°C° 0 mm 5 mps 759 mmHg 29%
    16:00 +33°C° 0 mm 5 mps 759 mmHg 31%
    17:00 +32°C° 0 mm 5 mps 759 mmHg 32%
    18:00 +30°C° 0 mm 5 mps 760 mmHg 37%
    19:00 +28°C° 0 mm 4 mps 760 mmHg 42%
    20:00 +27°C° 0 mm 4 mps 761 mmHg 47%
    21:00 +27°C° 0 mm 4 mps 761 mmHg 46%
    22:00 +27°C° 0 mm 5 mps 761 mmHg 45%
    23:00 +27°C° 0 mm 5 mps 761 mmHg 44%

    28 March, Thursday

    Time Temperature Precipitation Wind Pressure Humidity
    00:00 +26°C° 0 mm 5 mps 761 mmHg 50%
    01:00 +25°C° 0 mm 5 mps 761 mmHg 56%
    02:00 +23°C° 0 mm 5 mps 761 mmHg 62%
    03:00 +22°C° 0 mm 5 mps 761 mmHg 64%
    04:00 +21°C° 0 mm 5 mps 761 mmHg 65%
    05:00 +21°C° 0 mm 5 mps 762 mmHg 66%
    06:00 +21°C° 0 mm 5 mps 762 mmHg 65%
    07:00 +21°C° 0 mm 5 mps 763 mmHg 64%
    08:00 +21°C° 0 mm 5 mps 763 mmHg 64%
    09:00 +23°C° 0 mm 5 mps 763 mmHg 58%
    10:00 +26°C° 0 mm 4 mps 763 mmHg 52%
    11:00 +28°C° 0 mm 4 mps 763 mmHg 46%
    12:00 +30°C° 0 mm 4 mps 762 mmHg 43%
    13:00 +31°C° 0 mm 3 mps 762 mmHg 39%
    14:00 +33°C° 0 mm 3 mps 761 mmHg 36%
    15:00 +33°C° 0 mm 4 mps 761 mmHg 36%
    16:00 +33°C° 0 mm 4 mps 761 mmHg 36%
    17:00 +32°C° 0 mm 4 mps 761 mmHg 35%
    18:00 +30°C° 0 mm 5 mps 762 mmHg 39%
    19:00 +28°C° 0 mm 6 mps 762 mmHg 42%
    20:00 +26°C° 0 mm 6 mps 763 mmHg 45%
    21:00 +24°C° 0 mm 7 mps 763 mmHg 49%
    22:00 +22°C° 0 mm 7 mps 763 mmHg 53%
    23:00 +21°C° 0 mm 8 mps 764 mmHg 57%

    29 March, Friday

    Time Temperature Precipitation Wind Pressure Humidity
    00:00 +20°C° 0 mm 8 mps 764 mmHg 58%
    01:00 +18°C° 0 mm 8 mps 764 mmHg 59%
    02:00 +17°C° 0 mm 8 mps 764 mmHg 60%
    03:00 +17°C° 0 mm 8 mps 764 mmHg 61%
    04:00 +16°C° 0 mm 8 mps 764 mmHg 61%
    05:00 +16°C° 0 mm 7 mps 764 mmHg 61%
    06:00 +16°C° 0 mm 7 mps 765 mmHg 60%
    07:00 +17°C° 0 mm 7 mps 765 mmHg 59%
    08:00 +17°C° 0 mm 7 mps 766 mmHg 58%
    09:00 +20°C° 0 mm 7 mps 765 mmHg 53%
    10:00 +22°C° 0 mm 7 mps 765 mmHg 47%
    11:00 +24°C° 0 mm 6 mps 765 mmHg 42%
    12:00 +27°C° 0 mm 6 mps 764 mmHg 39%
    13:00 +28°C° 0 mm 5 mps 763 mmHg 37%
    14:00 +30°C° 0 mm 5 mps 763 mmHg 34%
    15:00 +30°C° 0 mm 5 mps 762 mmHg 34%
    16:00 +30°C° 0 mm 5 mps 762 mmHg 34%
    17:00 +30°C° 0 mm 5 mps 762 mmHg 34%
    18:00 +28°C° 0 mm 5 mps 762 mmHg 36%
    19:00 +27°C° 0 mm 5 mps 763 mmHg 37%
    20:00 +26°C° 0 mm 5 mps 763 mmHg 39%
    21:00 +26°C° 0 mm 6 mps 763 mmHg 36%
    22:00 +24°C° 0 mm 6 mps 763 mmHg 33%
    23:00 +24°C° 0 mm 7 mps 763 mmHg 29%
    Show more